Погода в Вершине Тёи

Россия / Республика Хакасия     53°16′04″N   89°34′01″E
темп.,
°C
ветер,
м/с
пор.,
м/с
влажн.,
%
обл.,
%
осадки,
мм/ч
давл.,
гПа
погр.,
м
22 января, пт
пт2201:00−10ююв2296100 0.3 101421
04:00−8ююв1296100 0.1 101021
07:00−7ююв2296100 0.3 100758
10:00−3юз31292100 0.3 1006716
13:00−4з41394100 0.9 1005971
16:00−6з61294100 0.7 1008879
19:00−10з2897100 1.1 1012326
22:00−11з2597100 0.2 1014217
23 января, сб
сб2301:00−12з2897100 0.5 1018463
04:00−15з31097100 0.1 1022550
07:00−17з21297100 0.3 1027645
10:00−19зюз2129898 0.1 1031728
13:00−17з5148999 0.1 1032967
16:00−18з41390100 0.1 1031873
19:00−20юз2298100 0.1 103337
22:00−21юз229899 0.1 103420
24 января, вс
вс2401:00−20юз129899 0.1 103423
04:00−20юз1298100 0.1 103420
07:00−20зюз1299100 0.1 103420
10:00−19ююз1296100 0.1 103446
13:00−15зюз2584100 0.1 1032762
16:00−15зсз1190100 0.1 1031322
19:00−18сз1198100 0.4 103323
22:00−19з21098100 0.1 1034529
25 января, пн
пн2501:00−20з31198100 0.3 1036743
04:00−24з24100100 0.1 1039123
07:00−26зсз25100100 0.1 1041349
10:00−27зсз23100100 0.0 1043176
13:00−25зсз2592100 0.1 1043567
16:00−25зсз2692100 0.1 1043618
19:00−29з11100100 0.1 104519
22:00−31зюз11100100 0.0 104519
26 января, вт
вт2601:00−32з11100100 0.1 104519
04:00−33зюз11100100 0.0 104419
07:00−33зюз11100100 0.1 104419
10:00−31зюз119999 0.0 104519
13:00−25зсз229084 0.0 1042312
16:00−24зсз148989 0.0 1042515
19:00−30зюз1110056 0.0 104419
22:00−31з119912 0.0 104619